[[{"header":{"parameterUnit":"m.s-1","parameterCategory":1,"la1":30.2991,"la2":30.254,"lo1":-89.0895,"lo2":-89.0444,"dy":0.0017,"dx":0.0017,"nx":28,"ny":28,"refTime":"2025-07-07T21:00:00:Z","depth":0,"parameterNumber":2,"parameterNumberName":"U-component_of_WINDS"},"data":[0,0,0,0,0,0,0,0,0,0,0,0,0,0,0,0,0,0,0,0,0,0,0,0,0,0,0,0,0,0,0,0,0,0,0,0,0,0,0,0,0,0,0,0,0,0,0,0,0,0,0,0,0,0,0,0,0,0,3.4247,3.4248,0,3.43,3.43,3.4301,3.4273,3.4272,3.427,3.4269,3.4323,3.4326,3.4329,0,0,0,0,0,0,0,0,0,0,0,0,0,3.4126,3.4128,3.4247,3.4248,3.4248,3.43,3.43,3.4301,3.4273,3.4272,3.427,3.4268,3.4322,3.4326,3.4329,0,0,0,0,0,0,0,0,0,0,0,0,0,3.4178,3.4129,3.4247,3.4241,3.4241,3.4299,3.43,3.4301,3.4274,3.4271,3.4269,3.4267,3.4321,3.4325,3.4329,3.4397,0,0,3.4342,3.4344,0,0,0,0,0,0,0,0,3.4176,3.4183,3.4241,3.4241,3.4241,3.4278,3.4277,3.4333,3.4274,3.4261,3.4269,3.4266,3.431,3.4315,3.4329,3.44,3.4402,3.4342,3.4345,3.4347,3.4348,0,0,0,0,0,0,0,3.4172,3.4181,3.4268,3.4242,3.4242,3.4236,3.4241,3.4288,3.4297,3.4262,3.426,3.4267,3.4309,3.4325,3.433,3.4403,3.4342,3.4346,3.4348,3.435,3.4535,3.4538,0,0,0,0,0,0,3.4168,3.4178,3.4266,3.4269,3.4203,3.424,3.4246,3.4268,3.4296,3.4298,3.4269,3.4265,3.4319,3.4325,3.4332,3.4415,3.4347,3.435,3.4353,3.4533,3.4536,3.4538,0,0,0,0,0,0,3.4166,3.4177,3.4264,3.4223,3.4234,3.4245,3.427,3.427,3.4286,3.4301,3.4303,3.4283,3.4318,3.4326,3.4382,3.4417,3.4352,3.4356,3.453,3.4534,3.4537,3.4581,0,0,0,0,0,0,3.4162,3.4176,3.4201,3.4224,3.4236,3.4312,3.4272,3.4273,3.4293,3.4289,3.4315,3.4317,3.4317,3.4376,3.4386,3.4421,3.4359,3.4527,3.4532,3.4536,3.4577,3.4586,3.4594,0,0,0,0,0,3.4158,3.4211,3.4202,3.4213,3.4268,3.4314,3.4321,3.432,3.4296,3.4322,3.4332,3.4316,3.4411,3.4382,3.4393,3.443,3.4525,3.453,3.4536,3.4573,3.4584,3.4594,0,0,0,0,0,0,3.4191,3.4213,3.4204,3.4265,3.4288,3.4309,3.4342,3.4331,3.4361,3.4357,3.4354,3.436,3.4418,3.443,3.4396,3.4499,3.4465,3.4473,3.4489,3.45,3.4508,3.4505,3.4363,0,0,0,0,0,3.4205,3.4241,3.4259,3.4311,3.4323,3.4331,3.4351,3.4348,3.4372,3.4381,3.4395,3.4419,3.4455,3.4478,3.4511,3.4579,3.4585,3.461,3.4619,3.4626,3.4633,3.4672,3.4684,3.4556,3.4556,3.4556,0,0,3.4235,3.4252,3.4274,3.4318,3.4335,3.4374,3.4339,3.438,3.4408,3.4387,3.4441,3.4453,3.4479,3.4542,3.457,3.4553,3.4669,3.4633,3.4638,3.4641,3.4679,3.4691,3.4701,3.456,3.4559,3.4559,0,0,3.4309,3.4324,3.4371,3.439,3.4417,3.4422,3.4433,3.4457,3.4464,3.4518,3.4504,3.4538,3.4599,3.4619,3.4638,3.4723,3.4711,3.4734,3.4779,3.4817,3.4827,3.4836,3.4868,3.488,3.4741,3.4741,3.4741,0,3.4342,3.4398,3.4396,3.4439,3.446,3.4444,3.4492,3.451,3.4547,3.4562,3.4543,3.4621,3.4637,3.4705,3.4727,3.4741,3.4756,3.4731,3.4826,3.4835,3.4843,3.4874,3.4886,3.4744,3.4744,3.4743,3.4743,0,3.444,3.4479,3.4513,3.455,3.4575,3.462,3.4626,3.4652,3.4648,3.4656,3.4713,3.4732,3.4771,3.4787,3.4782,3.4856,3.4845,3.4826,3.4791,3.4858,3.4887,3.4898,3.4748,3.4747,3.4746,3.4746,0,0,3.4533,3.457,3.4583,3.4601,3.4631,3.4662,3.4708,3.4746,3.4768,3.4795,3.4834,3.4888,3.4872,3.4892,3.4891,3.4924,3.4993,3.4902,3.4902,3.4919,3.5078,3.5092,3.5105,3.4985,3.4988,3.4989,3.5076,0,3.461,3.469,3.4691,3.4765,3.4802,3.4789,3.4829,3.4853,3.4862,3.4897,3.4907,3.4945,3.492,3.4933,3.4966,3.4978,3.5025,3.4972,3.5023,3.5025,3.5017,3.512,3.5135,3.5215,3.5087,3.5089,3.509,0,3.471,3.4741,3.4819,3.4846,3.4862,3.4898,3.4935,3.4967,3.4995,3.4999,3.5024,3.5019,3.5067,3.5031,3.5099,3.5063,3.5084,3.5094,3.5097,3.5102,3.5062,3.5129,3.5241,3.5253,3.5108,3.5106,3.5105,0,3.4773,3.4834,3.4889,3.4905,3.4937,3.4963,3.4978,3.5004,3.5028,3.506,3.5076,3.5113,3.5133,3.5163,3.5168,3.5142,3.5237,3.5201,3.5244,3.5244,3.5264,3.5263,3.5382,3.5277,3.5277,3.5277,3.5276,0,3.4859,3.4907,3.4918,3.4952,3.5007,3.5008,3.5063,3.5076,3.5099,3.5137,3.5127,3.5163,3.5167,3.5204,3.5209,3.5266,3.5275,3.5281,3.5282,3.5282,3.5282,3.5296,3.5291,3.528,3.5279,3.5278,3.5278,0,3.4938,3.4947,3.5006,3.5033,3.5041,3.5081,3.5104,3.5138,3.5147,3.5195,3.5206,3.5221,3.5265,3.5273,3.5324,3.5327,3.5395,3.539,3.5386,3.5386,3.5428,3.5425,3.5561,3.558,3.5462,3.5463,3.5464,0,3.4992,3.5029,3.5061,3.5086,3.5102,3.5142,3.5166,3.517,3.5197,3.5233,3.5262,3.5305,3.5339,3.541,3.5426,3.5466,3.5462,3.5507,3.5468,3.5468,3.5464,3.5462,3.5467,3.5515,3.5516,3.5517,3.5518,0,3.5089,3.5092,3.5128,3.5166,3.5196,3.5226,3.5255,3.5276,3.5284,3.5315,3.5359,3.5386,3.544,3.5483,3.5523,3.554,3.5531,3.553,3.5543,3.5544,3.554,3.5544,3.5408,3.5527,3.5526,3.5526,3.5525,3.5525,3.5158,3.5191,3.522,3.5261,3.5283,3.5311,3.5345,3.5359,3.5396,3.544,3.544,3.549,3.552,3.5573,3.5592,3.5632,3.5618,3.5635,3.564,3.5644,3.5649,3.5534,3.5639,3.5639,3.5639,3.5639,3.5639,0,3.5255,3.5273,3.5311,3.5352,3.5385,3.5375,3.5407,3.5435,3.5479,3.5507,3.5542,3.5595,3.5638,3.5658,3.57,3.5729,3.5726,3.574,3.5738,3.5742,3.5658,3.5644,3.5741,3.5741,3.5741,3.5741,3.5741,3.5741,3.531,3.5366,3.5374,3.5442,3.546,3.5509,3.5529,3.5555,3.5578,3.5637,3.5673,3.5686,3.5712,3.5757,3.5796,3.5801,3.5818,3.5834,3.5837,3.5758,3.5748,3.5738,3.5725,3.5837,3.5838,3.5918,3.5919,3.592]},{"header":{"parameterUnit":"m.s-1","parameterCategory":1,"la1":30.2991,"la2":30.254,"lo1":-89.0895,"lo2":-89.0444,"dy":0.0017,"dx":0.0017,"nx":28,"ny":28,"refTime":"2025-07-07T21:00:00:Z","depth":0,"parameterNumber":3,"parameterNumberName":"V-component_of_WINDS"},"data":[0,0,0,0,0,0,0,0,0,0,0,0,0,0,0,0,0,0,0,0,0,0,0,0,0,0,0,0,0,0,0,0,0,0,0,0,0,0,0,0,0,0,0,0,0,0,0,0,0,0,0,0,0,0,0,0,0,0,-1.7901,-1.7901,0,-1.7969,-1.7969,-1.797,-1.7985,-1.7984,-1.7984,-1.7983,-1.8054,-1.8056,-1.8058,0,0,0,0,0,0,0,0,0,0,0,0,0,-1.7785,-1.7787,-1.7901,-1.7901,-1.7902,-1.7969,-1.7969,-1.797,-1.7985,-1.7984,-1.7984,-1.7983,-1.8053,-1.8056,-1.8058,0,0,0,0,0,0,0,0,0,0,0,0,0,-1.7843,-1.7788,-1.79,-1.7917,-1.792,-1.7968,-1.797,-1.7971,-1.7985,-1.7984,-1.7983,-1.7983,-1.8052,-1.8055,-1.8059,-1.8096,0,0,-1.8069,-1.8071,0,0,0,0,0,0,0,0,-1.7839,-1.7847,-1.7914,-1.7916,-1.7919,-1.7967,-1.7955,-1.8013,-1.7985,-1.796,-1.7983,-1.7982,-1.8026,-1.8031,-1.8046,-1.8099,-1.8102,-1.807,-1.8072,-1.8073,-1.8074,0,0,0,0,0,0,0,-1.7835,-1.7844,-1.7928,-1.7915,-1.7918,-1.7922,-1.793,-1.7966,-1.7996,-1.7962,-1.7963,-1.7971,-1.8027,-1.8042,-1.8047,-1.8103,-1.807,-1.8073,-1.8075,-1.8076,-1.8193,-1.8194,0,0,0,0,0,0,-1.7828,-1.7841,-1.7925,-1.793,-1.7876,-1.7925,-1.7933,-1.7953,-1.7996,-1.8002,-1.7972,-1.7972,-1.8037,-1.8043,-1.805,-1.8098,-1.8073,-1.8077,-1.8079,-1.8192,-1.8193,-1.8194,0,0,0,0,0,0,-1.7826,-1.7836,-1.7923,-1.7885,-1.7897,-1.7928,-1.795,-1.7954,-1.797,-1.8003,-1.8009,-1.7982,-1.8036,-1.8045,-1.8085,-1.81,-1.8078,-1.8081,-1.8191,-1.8192,-1.8193,-1.8192,0,0,0,0,0,0,-1.7822,-1.7835,-1.7848,-1.7886,-1.7899,-1.7955,-1.795,-1.7956,-1.7976,-1.7976,-1.8014,-1.802,-1.8036,-1.8079,-1.8088,-1.8105,-1.8084,-1.8189,-1.8191,-1.8193,-1.8191,-1.8193,-1.8196,0,0,0,0,0,-1.7818,-1.7845,-1.7849,-1.7859,-1.7916,-1.7956,-1.7964,-1.7982,-1.7977,-1.7991,-1.8013,-1.8018,-1.8097,-1.8083,-1.8093,-1.8111,-1.8188,-1.8191,-1.8193,-1.819,-1.8193,-1.8195,0,0,0,0,0,0,-1.7808,-1.785,-1.7855,-1.7894,-1.7922,-1.7959,-1.7977,-1.7984,-1.8014,-1.8013,-1.8035,-1.8044,-1.8083,-1.8101,-1.8085,-1.815,-1.8143,-1.8147,-1.8137,-1.814,-1.8142,-1.8137,-1.8087,0,0,0,0,0,-1.781,-1.7839,-1.7874,-1.7905,-1.7919,-1.7946,-1.7964,-1.7976,-1.8005,-1.8017,-1.8042,-1.807,-1.8102,-1.8122,-1.8152,-1.8194,-1.8203,-1.8211,-1.8213,-1.8215,-1.8219,-1.8244,-1.8249,-1.8201,-1.8201,-1.8201,0,0,-1.7815,-1.7842,-1.7858,-1.7904,-1.7927,-1.7957,-1.7955,-1.7986,-1.8009,-1.8022,-1.8061,-1.808,-1.8114,-1.8155,-1.8175,-1.8172,-1.8234,-1.8218,-1.8219,-1.8222,-1.8247,-1.8252,-1.8256,-1.8203,-1.8202,-1.8202,0,0,-1.784,-1.7862,-1.7892,-1.7915,-1.795,-1.7968,-1.7975,-1.8012,-1.8025,-1.8065,-1.8075,-1.8103,-1.8156,-1.8181,-1.82,-1.8236,-1.8243,-1.8246,-1.8258,-1.8282,-1.8286,-1.829,-1.8304,-1.8309,-1.8249,-1.8249,-1.8249,0,-1.7842,-1.7887,-1.7906,-1.7938,-1.7958,-1.7971,-1.8003,-1.8024,-1.8067,-1.8081,-1.8077,-1.8146,-1.8169,-1.8218,-1.8227,-1.8241,-1.8252,-1.8242,-1.8284,-1.8288,-1.8291,-1.8306,-1.8311,-1.8249,-1.8249,-1.8249,-1.8249,0,-1.7889,-1.792,-1.794,-1.7982,-1.8004,-1.8035,-1.806,-1.8082,-1.8092,-1.8111,-1.8153,-1.8182,-1.8219,-1.8232,-1.8242,-1.8282,-1.828,-1.8279,-1.8272,-1.8296,-1.831,-1.8315,-1.825,-1.825,-1.825,-1.825,0,0,-1.7908,-1.7961,-1.7968,-1.7988,-1.8029,-1.8054,-1.8086,-1.8123,-1.8142,-1.8171,-1.82,-1.8246,-1.8247,-1.8269,-1.8282,-1.8304,-1.8333,-1.8302,-1.8303,-1.8308,-1.8382,-1.8382,-1.8388,-1.8338,-1.8339,-1.834,-1.838,0,-1.7938,-1.7996,-1.8016,-1.8064,-1.8095,-1.8109,-1.8137,-1.8166,-1.8185,-1.8214,-1.8235,-1.8268,-1.8266,-1.828,-1.8302,-1.8325,-1.8349,-1.8322,-1.8366,-1.8368,-1.8358,-1.8395,-1.8395,-1.8431,-1.8385,-1.8386,-1.8387,0,-1.7981,-1.8013,-1.8064,-1.8103,-1.8116,-1.8142,-1.8179,-1.8206,-1.8239,-1.8252,-1.8277,-1.829,-1.8326,-1.8316,-1.8367,-1.8349,-1.8368,-1.8383,-1.8385,-1.839,-1.8379,-1.8403,-1.8443,-1.8449,-1.8395,-1.8394,-1.8394,0,-1.7992,-1.8047,-1.8086,-1.8102,-1.8148,-1.8166,-1.8185,-1.8218,-1.824,-1.8272,-1.8287,-1.8323,-1.8343,-1.8372,-1.8394,-1.8385,-1.8444,-1.8436,-1.8457,-1.8456,-1.8469,-1.8468,-1.8514,-1.8479,-1.8479,-1.8479,-1.8479,0,-1.8025,-1.8056,-1.8091,-1.8115,-1.8152,-1.8174,-1.821,-1.8231,-1.826,-1.8289,-1.8303,-1.8331,-1.8358,-1.8389,-1.8407,-1.8448,-1.8457,-1.8469,-1.8473,-1.8468,-1.8467,-1.8482,-1.848,-1.8481,-1.848,-1.848,-1.848,0,-1.8043,-1.8067,-1.8111,-1.8151,-1.8162,-1.8187,-1.8222,-1.8246,-1.8267,-1.8304,-1.8314,-1.8346,-1.8383,-1.8409,-1.8457,-1.8469,-1.8514,-1.8517,-1.8502,-1.8505,-1.8525,-1.8523,-1.8583,-1.8593,-1.855,-1.8551,-1.8551,0,-1.8062,-1.8087,-1.813,-1.8151,-1.8171,-1.8204,-1.8227,-1.825,-1.8274,-1.8315,-1.8335,-1.8374,-1.8406,-1.8466,-1.8495,-1.8532,-1.8537,-1.8556,-1.8543,-1.8538,-1.854,-1.8538,-1.8542,-1.8558,-1.8558,-1.8558,-1.8559,0,-1.8095,-1.8107,-1.8139,-1.8176,-1.8203,-1.8233,-1.8263,-1.828,-1.8309,-1.8335,-1.8374,-1.8399,-1.8449,-1.8488,-1.8529,-1.8551,-1.856,-1.8563,-1.857,-1.8565,-1.8556,-1.8563,-1.8509,-1.8561,-1.8561,-1.8561,-1.8561,-1.856,-1.8115,-1.8139,-1.8174,-1.821,-1.8235,-1.8264,-1.829,-1.8314,-1.8347,-1.8389,-1.8402,-1.8443,-1.8478,-1.8534,-1.8556,-1.859,-1.8588,-1.8598,-1.86,-1.8603,-1.8604,-1.855,-1.8597,-1.8597,-1.8597,-1.8597,-1.8597,0,-1.815,-1.8174,-1.8207,-1.8249,-1.8278,-1.8285,-1.8319,-1.8343,-1.8379,-1.8411,-1.8443,-1.849,-1.8528,-1.856,-1.86,-1.8621,-1.8627,-1.8631,-1.863,-1.8636,-1.8602,-1.8593,-1.8626,-1.8626,-1.8626,-1.8626,-1.8626,-1.8626,-1.8172,-1.8213,-1.8229,-1.8283,-1.8307,-1.8347,-1.8367,-1.8394,-1.842,-1.8471,-1.8503,-1.8523,-1.8556,-1.8599,-1.8636,-1.8644,-1.8659,-1.8663,-1.8672,-1.8641,-1.8638,-1.8634,-1.8626,-1.8665,-1.8665,-1.8703,-1.8703,-1.8704]}]]